Вернуться в каталог

VESSELSAT 1

АктивенСвязьLEO
NORAD 37840·PAYLOAD·🇱🇺 Luxembourg

Запущен Oct 12, 2011 с Satish Dhawan Space Centre

Loading…

Ближайшие Пролёты (ближайшие 24 часа)

TLE

СвежийSource: Space-Track

Эпоха: Sep 14, 2026, 23:20 UTC

1 37840U 11058C   26257.97248168  .00000339  00000-0  39892-4 0  9994
2 37840  19.9609 221.7382 0013749 149.1271 210.9943 14.11448262770636

Отслеживайте VESSELSAT 1 в реальном времени с AllMySat

Download on the App Store